TimeCDT,TemperatureF,Dew PointF,Humidity,Sea Level PressureIn,VisibilityMPH,Wind Direction,Wind SpeedMPH,Gust SpeedMPH,PrecipitationIn,Events,Conditions,WindDirDegrees,DateUTC
12:53 AM,60.1,57.9,93,29.90,10.0,Calm,Calm,-,N/A,,Mostly Cloudy,0,2013-07-20 05:53:00
1:53 AM,61.0,59.0,93,29.91,10.0,WNW,4.6,-,N/A,,Overcast,300,2013-07-20 06:53:00
2:53 AM,63.0,54.0,72,29.90,10.0,NNE,8.1,-,N/A,,Clear,30,2013-07-20 07:53:00
3:53 AM,62.1,53.1,72,29.92,10.0,NNE,5.8,-,N/A,,Overcast,30,2013-07-20 08:53:00
4:53 AM,61.0,50.0,67,29.94,10.0,Variable,4.6,-,N/A,,Mostly Cloudy,0,2013-07-20 09:53:00
5:53 AM,60.1,46.9,62,29.95,10.0,ENE,3.5,-,N/A,,Mostly Cloudy,70,2013-07-20 10:53:00
6:53 AM,61.0,46.9,60,29.97,10.0,Calm,Calm,-,N/A,,Mostly Cloudy,0,2013-07-20 11:53:00
7:53 AM,61.0,46.9,60,29.99,10.0,Calm,Calm,-,N/A,,Overcast,0,2013-07-20 12:53:00
8:53 AM,62.1,48.0,60,29.99,10.0,NE,4.6,-,N/A,,Mostly Cloudy,50,2013-07-20 13:53:00
9:53 AM,64.0,50.0,60,30.01,10.0,Variable,4.6,-,N/A,,Mostly Cloudy,0,2013-07-20 14:53:00
10:53 AM,64.9,48.9,56,30.02,10.0,Variable,3.5,-,N/A,,Overcast,0,2013-07-20 15:53:00
11:53 AM,66.0,51.1,59,30.01,10.0,Variable,3.5,-,N/A,,Overcast,0,2013-07-20 16:53:00
12:53 PM,68.0,48.9,50,30.00,10.0,North,8.1,-,N/A,,Partly Cloudy,360,2013-07-20 17:53:00
1:53 PM,70.0,46.9,44,29.99,10.0,Variable,5.8,-,N/A,,Clear,0,2013-07-20 18:53:00
2:53 PM,71.1,46.0,41,29.97,10.0,NNE,8.1,-,N/A,,Clear,20,2013-07-20 19:53:00
3:53 PM,70.0,48.0,46,29.98,10.0,East,8.1,-,N/A,,Mostly Cloudy,100,2013-07-20 20:53:00
4:53 PM,70.0,48.0,46,29.99,10.0,Variable,4.6,-,N/A,,Mostly Cloudy,0,2013-07-20 21:53:00
5:53 PM,70.0,48.0,46,29.98,10.0,East,5.8,-,N/A,,Mostly Cloudy,80,2013-07-20 22:53:00
6:53 PM,69.1,48.0,47,29.97,10.0,SE,6.9,-,N/A,,Mostly Cloudy,130,2013-07-20 23:53:00
7:53 PM,69.1,48.0,47,29.97,10.0,East,4.6,-,N/A,,Clear,100,2013-07-21 00:53:00
8:53 PM,66.0,48.9,54,29.97,10.0,Calm,Calm,-,N/A,,Clear,0,2013-07-21 01:53:00
9:53 PM,64.0,50.0,60,29.98,10.0,Calm,Calm,-,N/A,,Overcast,0,2013-07-21 02:53:00
10:53 PM,62.1,52.0,70,29.99,10.0,Calm,Calm,-,N/A,,Overcast,0,2013-07-21 03:53:00
11:53 PM,60.1,51.1,72,29.98,10.0,Calm,Calm,-,N/A,,Clear,0,2013-07-21 04:53:00